When you browse on this site, cookies collect data to enhance your experience and personalize the content and advertising you see.
Visit our Privacy Policy to learn more. By continuing to use the site, you agree to this use of cookies and data.

Hourly Weather Hodun

Today, 7 July, Tuesday

Time Temperature Precipitation Wind Pressure Humidity
00:00 +20°C° 0 mm 3 mps 740 mmHg 91%
01:00 +19°C° 0 mm 3 mps 740 mmHg 92%
02:00 +19°C° 0 mm 3 mps 740 mmHg 93%
03:00 +19°C° 0 mm 2 mps 740 mmHg 93%
04:00 +19°C° 0 mm 2 mps 740 mmHg 93%
05:00 +20°C° 0 mm 1 mps 740 mmHg 93%
06:00 +21°C° 0 mm 2 mps 740 mmHg 88%
07:00 +23°C° 0 mm 2 mps 740 mmHg 84%
08:00 +24°C° 0 mm 2 mps 740 mmHg 79%
09:00 +25°C° 0.9 mm 2 mps 740 mmHg 77%
10:00 +26°C° 0.9 mm 2 mps 739 mmHg 74%
11:00 +27°C° 0.9 mm 2 mps 739 mmHg 71%
12:00 +26°C° 1.4 mm 3 mps 739 mmHg 75%
13:00 +25°C° 1.4 mm 4 mps 739 mmHg 79%
14:00 +25°C° 1.4 mm 4 mps 739 mmHg 83%
15:00 +23°C° 0.4 mm 5 mps 739 mmHg 86%
16:00 +21°C° 0.4 mm 6 mps 739 mmHg 88%
17:00 +20°C° 0.4 mm 6 mps 738 mmHg 91%
18:00 +19°C° 0.9 mm 6 mps 739 mmHg 91%
19:00 +17°C° 0.9 mm 6 mps 739 mmHg 90%
20:00 +16°C° 0.9 mm 6 mps 739 mmHg 90%
21:00 +15°C° 0.9 mm 6 mps 739 mmHg 90%
22:00 +14°C° 0.9 mm 6 mps 739 mmHg 89%
23:00 +13°C° 0.9 mm 6 mps 739 mmHg 89%

Tomorrow, 8 July, Wednesday

Time Temperature Precipitation Wind Pressure Humidity
00:00 +13°C° 0.2 mm 6 mps 739 mmHg 89%
01:00 +13°C° 0.2 mm 6 mps 740 mmHg 89%
02:00 +13°C° 0.2 mm 5 mps 740 mmHg 89%
03:00 +13°C° 0 mm 5 mps 740 mmHg 90%
04:00 +13°C° 0 mm 4 mps 740 mmHg 91%
05:00 +13°C° 0 mm 4 mps 741 mmHg 91%
06:00 +13°C° 0 mm 4 mps 741 mmHg 90%
07:00 +14°C° 0 mm 4 mps 741 mmHg 89%
08:00 +14°C° 0 mm 4 mps 742 mmHg 88%
09:00 +15°C° 0 mm 4 mps 742 mmHg 83%
10:00 +17°C° 0 mm 4 mps 743 mmHg 79%
11:00 +18°C° 0 mm 4 mps 743 mmHg 74%
12:00 +19°C° 0.1 mm 4 mps 743 mmHg 71%
13:00 +20°C° 0.1 mm 4 mps 743 mmHg 68%
14:00 +20°C° 0.1 mm 4 mps 743 mmHg 65%
15:00 +20°C° 0 mm 4 mps 743 mmHg 66%
16:00 +20°C° 0 mm 4 mps 744 mmHg 68%
17:00 +20°C° 0 mm 4 mps 744 mmHg 70%
18:00 +18°C° 0 mm 3 mps 744 mmHg 75%
19:00 +17°C° 0 mm 3 mps 744 mmHg 80%
20:00 +16°C° 0 mm 2 mps 744 mmHg 85%
21:00 +15°C° 0 mm 2 mps 744 mmHg 86%
22:00 +14°C° 0 mm 2 mps 744 mmHg 88%
23:00 +12°C° 0 mm 3 mps 744 mmHg 90%

Day after tomorrow, 9 July, Thursday

Time Temperature Precipitation Wind Pressure Humidity
00:00 +12°C° 0 mm 2 mps 745 mmHg 91%
01:00 +12°C° 0 mm 2 mps 745 mmHg 92%
02:00 +10°C° 0 mm 2 mps 745 mmHg 93%
03:00 +12°C° 0 mm 2 mps 745 mmHg 92%
04:00 +12°C° 0 mm 2 mps 745 mmHg 91%
05:00 +13°C° 0 mm 2 mps 745 mmHg 90%
06:00 +13°C° 0.3 mm 2 mps 745 mmHg 91%
07:00 +13°C° 0.3 mm 2 mps 745 mmHg 93%
08:00 +14°C° 0.3 mm 2 mps 746 mmHg 94%
09:00 +14°C° 0.3 mm 2 mps 746 mmHg 93%
10:00 +13°C° 0.3 mm 3 mps 746 mmHg 92%
11:00 +13°C° 0.3 mm 3 mps 747 mmHg 91%
12:00 +16°C° 0 mm 3 mps 747 mmHg 82%
13:00 +17°C° 0 mm 3 mps 747 mmHg 73%
14:00 +19°C° 0 mm 3 mps 746 mmHg 64%
15:00 +19°C° 0.1 mm 4 mps 747 mmHg 68%
16:00 +19°C° 0.1 mm 4 mps 747 mmHg 71%
17:00 +18°C° 0.1 mm 4 mps 747 mmHg 75%
18:00 +17°C° 0.2 mm 3 mps 747 mmHg 80%
19:00 +16°C° 0.2 mm 3 mps 747 mmHg 85%
20:00 +14°C° 0.2 mm 2 mps 748 mmHg 90%
21:00 +14°C° 0 mm 2 mps 748 mmHg 91%
22:00 +13°C° 0 mm 2 mps 748 mmHg 92%
23:00 +12°C° 0 mm 2 mps 749 mmHg 92%

10 July, Friday

Time Temperature Precipitation Wind Pressure Humidity
00:00 +12°C° 0 mm 2 mps 749 mmHg 93%
01:00 +10°C° 0 mm 2 mps 749 mmHg 93%
02:00 +10°C° 0 mm 2 mps 749 mmHg 93%
03:00 +10°C° 0 mm 2 mps 750 mmHg 93%
04:00 +10°C° 0 mm 2 mps 750 mmHg 93%
05:00 +12°C° 0 mm 2 mps 750 mmHg 93%
06:00 +13°C° 0 mm 2 mps 750 mmHg 88%
07:00 +15°C° 0 mm 2 mps 750 mmHg 83%
08:00 +17°C° 0 mm 2 mps 751 mmHg 78%
09:00 +18°C° 0 mm 2 mps 751 mmHg 73%
10:00 +19°C° 0 mm 2 mps 751 mmHg 68%
11:00 +21°C° 0 mm 3 mps 751 mmHg 63%
12:00 +21°C° 0 mm 3 mps 751 mmHg 62%
13:00 +21°C° 0 mm 3 mps 751 mmHg 60%
14:00 +22°C° 0 mm 3 mps 750 mmHg 59%
15:00 +22°C° 0 mm 3 mps 750 mmHg 61%
16:00 +22°C° 0 mm 3 mps 750 mmHg 64%
17:00 +21°C° 0 mm 3 mps 750 mmHg 66%
18:00 +20°C° 0 mm 3 mps 750 mmHg 71%
19:00 +18°C° 0 mm 3 mps 750 mmHg 76%
20:00 +17°C° 0 mm 3 mps 750 mmHg 80%
21:00 +16°C° 0 mm 3 mps 750 mmHg 81%
22:00 +14°C° 0 mm 3 mps 750 mmHg 81%
23:00 +14°C° 0 mm 3 mps 750 mmHg 82%

11 July, Saturday

Time Temperature Precipitation Wind Pressure Humidity
00:00 +14°C° 0 mm 4 mps 750 mmHg 83%
01:00 +13°C° 0 mm 4 mps 750 mmHg 85%
02:00 +13°C° 0 mm 4 mps 750 mmHg 87%
03:00 +13°C° 0 mm 4 mps 750 mmHg 86%
04:00 +13°C° 0 mm 4 mps 750 mmHg 85%
05:00 +14°C° 0 mm 4 mps 749 mmHg 85%
06:00 +15°C° 0 mm 5 mps 749 mmHg 82%
07:00 +17°C° 0 mm 5 mps 749 mmHg 78%
08:00 +19°C° 0 mm 6 mps 749 mmHg 75%
09:00 +21°C° 0 mm 6 mps 749 mmHg 73%
10:00 +22°C° 0 mm 6 mps 749 mmHg 71%
11:00 +23°C° 0 mm 6 mps 749 mmHg 69%
12:00 +24°C° 0.1 mm 6 mps 749 mmHg 70%
13:00 +24°C° 0.1 mm 6 mps 749 mmHg 71%
14:00 +26°C° 0.1 mm 6 mps 749 mmHg 71%
15:00 +25°C° 0.7 mm 5 mps 748 mmHg 76%
16:00 +25°C° 0.7 mm 5 mps 748 mmHg 80%
17:00 +23°C° 0.7 mm 5 mps 748 mmHg 84%
18:00 +22°C° 0.8 mm 4 mps 748 mmHg 87%
19:00 +21°C° 0.8 mm 4 mps 748 mmHg 90%
20:00 +20°C° 0.8 mm 3 mps 748 mmHg 93%
21:00 +20°C° 1.6 mm 3 mps 748 mmHg 94%
22:00 +19°C° 1.6 mm 2 mps 748 mmHg 96%
23:00 +19°C° 1.6 mm 2 mps 748 mmHg 97%

12 July, Sunday

Time Temperature Precipitation Wind Pressure Humidity
00:00 +18°C° 3.3 mm 2 mps 748 mmHg 97%
01:00 +17°C° 3.3 mm 3 mps 747 mmHg 97%
02:00 +16°C° 3.3 mm 3 mps 747 mmHg 97%
03:00 +16°C° 3.8 mm 3 mps 747 mmHg 97%
04:00 +14°C° 3.8 mm 3 mps 747 mmHg 97%
05:00 +14°C° 3.8 mm 4 mps 747 mmHg 97%
06:00 +14°C° 2.1 mm 4 mps 747 mmHg 97%
07:00 +13°C° 2.1 mm 4 mps 747 mmHg 96%
08:00 +13°C° 2.1 mm 4 mps 747 mmHg 96%
09:00 +13°C° 3.8 mm 4 mps 747 mmHg 96%
10:00 +13°C° 3.8 mm 4 mps 747 mmHg 96%
11:00 +12°C° 3.8 mm 4 mps 747 mmHg 97%
12:00 +13°C° 1.6 mm 4 mps 747 mmHg 96%
13:00 +13°C° 1.6 mm 3 mps 747 mmHg 95%
14:00 +13°C° 1.6 mm 3 mps 747 mmHg 94%
15:00 +15°C° 0.2 mm 2 mps 747 mmHg 92%
16:00 +15°C° 0.2 mm 2 mps 747 mmHg 89%
17:00 +16°C° 0.2 mm 2 mps 747 mmHg 86%
18:00 +15°C° 0 mm 2 mps 747 mmHg 88%
19:00 +15°C° 0 mm 1 mps 747 mmHg 90%
20:00 +14°C° 0 mm 1 mps 747 mmHg 92%
21:00 +13°C° 0 mm 1 mps 747 mmHg 92%
22:00 +13°C° 0 mm 1 mps 747 mmHg 93%
23:00 +12°C° 0 mm 1 mps 747 mmHg 93%
Show more